Temperature
17 18 18 19 19 19 20 22 25 26 26 27 26 25 25 25 23 21 21 20 20 20 20 18 17 17 16 16 16 16 15 15 15 14 14 13 13 13 13 12 12 13 13 13 13 13 13 13 13
17 18 18 20 18 19 21 23 24 26 26 25 25 25 25 26 23 21 20 19 19 20 20 19 18 17 16 16 16 16 15 15 14 14 13 13 13 13 13 13 12 13 13 13 13 13 13 13 13
17 17 19 19 19 19 21 25 26 26 25 24 25 25 26 25 23 21 20 19 18 19 19 19 18 17 16 16 16 16 15 15 14 13 13 13 13 13 13 13 13 13 13 13 13 13 13 13 13
16 17 19 19 19 21 22 24 26 25 25 25 25 26 25 23 23 21 20 19 18 18 18 18 18 17 16 16 16 16 15 15 14 13 13 13 13 14 14 14 14 14 13 13 13 14 13 14 14
16 18 18 18 19 21 23 25 25 25 24 25 25 25 24 23 22 21 20 19 18 17 18 18 17 17 16 16 16 16 15 15 14 14 13 13 14 14 14 14 15 14 14 14 14 14 14 14 14
17 18 18 18 20 22 23 25 25 24 24 25 25 24 23 22 21 20 19 19 18 17 18 18 17 16 16 16 16 16 16 15 14 14 14 13 14 14 14 15 15 14 14 14 14 14 14 14 14
17 17 18 19 20 22 23 25 25 23 23 25 25 24 23 21 21 20 19 19 18 17 17 17 17 16 16 16 16 16 16 15 15 14 14 14 14 14 14 14 15 14 14 14 14 14 14 14 14
17 18 18 19 20 21 24 25 25 24 23 24 24 24 23 21 20 20 19 19 18 17 17 17 17 16 16 16 16 16 15 15 15 15 15 14 14 14 14 14 14 14 14 14 14 14 14 14 13
16 16 17 19 20 21 24 24 24 23 23 23 23 23 21 20 20 20 19 19 18 17 16 16 16 16 16 16 15 15 15 15 15 15 15 15 14 14 14 14 14 14 14 14 14 13 13 13 13
16 15 17 19 21 21 23 23 23 22 22 22 23 22 21 20 20 19 19 19 18 17 17 16 15 15 15 15 15 15 15 16 15 15 15 14 14 13 14 14 14 14 14 13 13 13 13 13 13
16 15 17 19 21 21 20 21 22 21 20 22 22 22 21 21 20 19 19 18 18 17 17 16 16 15 15 15 15 15 15 15 15 15 15 14 13 13 13 13 14 13 13 13 13 13 13 12 12
16 17 18 19 19 19 19 19 20 20 21 21 22 22 21 20 20 20 20 19 19 18 17 17 16 16 15 15 15 14 14 14 14 14 14 14 13 13 13 13 13 13 13 13 12 12 12 12 12
16 16 18 18 18 17 17 17 17 18 19 20 20 20 20 20 20 20 20 20 20 19 18 17 16 16 15 15 15 14 14 14 14 14 13 13 13 13 13 13 13 12 12 12 12 12 12 12 12
16 16 17 17 17 17 16 16 16 17 18 18 19 19 19 19 20 20 20 20 20 20 19 18 17 16 16 15 15 15 14 14 14 14 14 13 13 13 13 13 13 13 12 12 12 12 12 12 12
15 14 15 16 16 16 16 15 16 17 17 18 18 19 19 19 19 20 20 20 20 20 19 18 18 17 16 15 15 15 15 14 14 14 14 14 13 13 13 13 13 13 13 12 12 12 12 12 12
14 13 13 16 16 16 15 14 16 18 18 17 18 18 19 19 19 19 20 20 20 20 19 19 18 17 16 16 15 15 15 14 14 14 14 14 13 13 13 13 13 13 13 13 12 12 12 12 12
12 12 13 16 17 16 15 14 16 18 19 18 18 18 18 19 19 19 19 20 20 20 19 19 18 17 17 16 15 15 15 14 14 14 14 14 13 13 13 13 13 13 13 12 12 12 12 12 12
13 13 14 15 16 16 14 14 16 17 18 18 18 18 18 18 19 19 19 19 20 20 19 19 18 18 17 16 15 15 15 14 14 14 14 14 13 13 13 13 13 13 12 12 12 12 12 12 11
13 13 14 15 16 15 14 14 15 16 16 16 17 17 18 18 18 19 19 19 19 20 19 19 18 18 17 16 16 15 15 14 14 14 13 13 13 13 13 13 13 13 12 12 12 12 12 11 11
12 12 12 14 15 14 13 13 14 15 15 16 17 17 17 17 18 18 18 19 19 19 19 19 18 18 17 17 16 16 15 14 14 14 13 13 13 13 13 13 13 12 12 12 11 11 11 11 10
11 11 12 12 12 13 12 12 14 16 16 16 17 17 17 17 18 18 18 18 18 18 18 18 18 18 17 16 16 15 14 14 13 13 13 13 13 13 13 12 12 12 11 11 11 11 11 10 10
11 12 12 11 10 11 12 10 13 16 17 17 17 17 17 17 17 17 17 18 18 18 18 18 18 17 17 16 15 15 15 15 14 14 13 13 12 12 12 12 12 11 11 11 10 10 10 10 9
11 11 11 11 10 9 10 9 11 15 15 17 16 18 18 17 17 17 17 17 17 17 17 17 17 17 16 16 15 15 15 15 15 13 12 12 12 12 12 11 11 11 10 10 10 10 9 9 8
11 10 10 10 9 7 9 10 11 15 17 17 17 18 18 17 17 17 16 16 16 16 16 17 16 16 16 15 15 15 14 15 15 14 12 12 12 11 11 11 10 10 10 10 10 9 9 8 7
10 8 8 8 7 7 11 11 12 16 17 17 17 17 17 16 16 16 16 16 16 16 16 16 16 16 15 15 14 13 13 14 15 15 13 12 11 11 11 10 10 9 9 9 9 9 8 7 7
9 9 8 9 9 11 13 12 13 16 17 18 17 17 16 16 15 15 15 15 15 15 15 15 15 15 14 14 13 12 12 13 13 13 13 12 11 11 10 9 9 9 9 8 8 8 7 6 6
8 8 9 8 8 7 9 12 15 16 16 16 16 16 15 15 14 14 14 14 14 14 14 14 14 14 13 13 12 11 11 11 12 12 12 11 10 10 9 9 8 8 8 8 7 7 6 6 5
10 9 8 7 6 7 10 12 13 15 15 15 14 14 14 14 13 13 13 13 13 13 13 13 13 13 12 12 11 11 10 11 11 11 11 10 10 9 8 8 8 8 7 7 6 6 5 5 4
8 8 8 8 8 7 7 10 15 14 14 14 13 14 13 13 12 12 12 12 12 12 12 12 12 12 11 10 10 10 10 10 10 10 10 10 9 8 8 8 7 7 7 6 6 5 4 4 3
9 9 8 7 7 8 7 9 14 14 14 14 13 13 12 11 11 11 11 11 11 11 12 12 11 10 10 10 9 9 9 9 9 9 9 8 8 7 7 7 7 6 6 5 5 4 3 3 2
Wind_Speed
15 17 10 4 4 6 12 12 11 1 3 5 7 6 9 8 6 8 6 13 19 19 20 20 20 19 18 17 16 15 14 14 14 14 14 13 12 11 11 10 11 12 13 13 14 14 14 14 13
12 12 6 4 5 8 11 15 11 4 2 8 5 3 7 1 9 9 8 14 19 18 19 19 20 19 18 17 16 15 14 14 14 14 14 13 12 11 11 11 11 11 12 13 14 14 14 13 12
9 11 5 5 7 12 12 7 2 6 6 2 4 7 7 4 10 8 10 14 17 16 18 21 21 20 18 17 16 15 14 13 13 14 14 13 12 12 11 11 11 11 11 12 12 12 12 11 10
6 5 5 8 13 15 16 14 1 7 3 5 6 5 4 7 6 10 12 12 16 16 18 21 21 20 19 17 16 15 14 14 14 14 14 13 13 12 12 11 11 10 10 11 11 11 10 9 8
5 5 9 12 17 16 13 12 3 3 4 6 5 6 5 7 13 14 10 12 14 16 18 20 21 20 19 17 16 15 15 14 14 14 14 13 13 12 12 11 10 9 9 10 9 9 8 7 6
5 5 9 14 17 16 15 12 4 4 7 5 3 7 4 10 12 11 9 9 13 17 17 19 20 20 19 17 16 15 15 14 14 14 13 13 12 12 11 10 9 9 8 8 8 7 7 6 5
7 7 13 14 15 15 15 12 8 8 9 8 5 6 5 9 11 11 10 8 12 17 16 14 17 17 18 18 16 15 15 14 14 13 13 12 12 11 11 10 8 8 7 7 6 6 6 5 4
7 6 13 15 16 14 11 9 9 8 8 7 2 3 3 9 9 10 9 8 12 14 16 13 15 16 15 15 16 16 15 14 13 13 14 13 13 12 11 10 8 7 7 6 6 5 5 4 3
7 8 12 12 13 12 12 7 5 6 5 7 3 2 8 8 8 8 7 6 9 11 13 14 13 13 16 16 16 16 15 14 14 13 14 14 13 13 11 11 10 8 7 6 5 4 3 3 3
6 9 13 11 11 9 10 6 3 5 8 9 7 5 9 9 8 8 7 7 8 9 11 13 13 12 13 14 15 14 13 14 14 13 14 13 12 12 13 14 12 9 8 7 5 4 4 4 4
7 8 10 13 13 8 9 7 2 5 8 9 10 9 9 9 9 10 10 10 10 9 9 11 13 12 10 8 12 11 12 13 14 16 17 14 9 12 13 10 10 9 9 7 6 5 2 3 4
11 10 11 12 7 6 7 9 9 8 9 9 7 3 7 9 9 10 11 12 13 13 11 10 12 12 11 9 8 8 7 9 9 13 18 11 5 6 7 7 9 9 7 5 3 2 5 5 5
15 13 11 10 8 6 7 10 11 13 11 11 9 5 3 5 7 8 9 9 11 14 15 12 10 12 11 10 7 6 5 7 9 9 13 11 5 4 4 4 6 6 7 6 3 4 5 4 6
6 9 12 11 8 7 10 12 13 12 12 12 13 11 9 9 9 9 8 9 9 11 15 14 12 11 11 10 8 7 6 8 9 8 10 12 9 5 4 4 4 5 7 6 5 5 3 4 4
6 8 9 10 10 8 9 14 17 17 16 16 15 13 12 12 11 12 10 9 9 9 12 15 15 13 12 11 11 7 6 8 6 8 11 12 11 8 6 5 5 5 8 8 7 5 5 3 3
6 7 7 9 14 12 10 12 10 13 17 19 17 15 13 13 14 13 13 11 10 9 10 13 14 14 13 11 10 8 6 6 5 9 11 12 12 12 8 6 5 8 9 7 4 4 3 4 4
7 7 10 8 9 7 10 9 10 10 8 11 12 13 13 13 15 15 14 13 11 11 10 12 13 14 13 11 9 8 7 7 5 8 8 11 12 14 9 5 6 9 6 5 5 5 4 4 4
6 8 9 8 7 7 10 11 10 11 12 10 10 11 11 13 13 13 14 13 12 12 12 12 13 14 12 10 8 7 7 6 5 5 7 11 11 14 11 6 7 9 6 5 5 5 4 3 3
7 6 7 5 5 4 9 13 13 13 14 15 14 14 14 14 13 12 12 11 11 11 11 12 13 14 12 10 10 9 7 6 5 4 8 10 12 14 10 7 7 6 6 6 6 4 5 3 4
9 8 9 8 7 7 11 17 17 19 19 19 18 16 15 15 14 13 12 11 11 10 10 10 12 14 14 11 10 7 7 6 5 4 6 10 12 13 11 8 7 7 7 7 6 4 3 2 4
8 8 8 8 11 9 11 13 14 15 19 19 17 17 15 15 14 13 12 12 11 11 10 10 11 12 13 13 10 9 8 6 4 5 5 7 11 12 12 10 8 7 7 6 6 5 4 2 2
7 5 6 7 6 5 6 7 8 9 9 12 14 14 13 13 12 11 11 11 11 11 10 10 11 12 13 15 14 16 11 8 6 6 6 8 10 11 12 12 10 8 7 7 6 5 4 3 2
2 4 3 5 6 7 5 7 10 9 10 9 8 9 9 9 9 9 10 10 9 9 9 10 10 11 13 15 17 16 12 8 10 10 11 9 8 9 11 12 10 9 7 7 7 5 4 3 3
2 0 4 4 3 6 7 9 8 4 3 1 1 1 3 4 5 6 7 7 7 7 7 7 10 11 12 15 17 16 16 16 17 15 13 10 8 8 9 11 9 8 7 7 6 5 6 5 3
5 3 3 4 4 8 9 8 9 7 4 3 4 4 4 4 4 5 6 6 7 7 7 7 9 10 12 14 15 14 16 17 19 17 15 14 11 9 9 10 9 8 7 6 6 6 5 4 2
9 5 3 4 4 3 4 8 7 8 5 3 2 4 4 6 6 7 7 6 7 8 8 8 10 9 11 13 13 13 15 13 12 13 14 13 11 10 10 10 10 9 8 7 6 5 4 3 2
7 7 4 4 4 5 7 7 9 9 5 3 3 4 5 7 8 8 8 7 7 8 8 9 11 10 12 12 13 15 15 13 14 13 13 12 12 12 12 12 11 9 7 7 6 4 3 3 2
4 4 4 3 3 5 8 7 5 2 1 2 3 5 7 8 8 9 8 7 7 7 7 9 10 11 12 13 14 13 13 14 15 14 15 15 14 13 13 12 11 9 7 6 5 4 3 1 1
7 5 5 4 4 4 5 6 4 7 7 6 6 7 8 9 9 9 8 7 7 6 7 9 10 12 13 14 14 15 14 14 15 14 15 16 15 14 13 12 10 9 7 6 4 3 3 2 3
10 9 8 4 5 5 5 9 8 6 6 8 10 10 9 8 8 8 8 6 5 4 6 8 10 13 14 15 16 15 15 15 15 16 15 15 15 13 12 11 10 8 7 5 3 2 2 2 3
Wind_Direction
297 281 267 256 249 235 247 254 257 277 332 3 29 355 326 354 52 110 151 113 122 130 136 139 135 131 127 123 119 118 119 119 119 117 113 107 102 98 95 91 83 72 70 72 74 79 83 86 86
288 281 270 242 240 243 247 241 241 180 55 35 12 288 279 330 99 114 121 119 127 131 140 140 136 133 129 125 122 121 120 120 120 120 116 111 107 102 98 95 89 81 78 76 76 80 80 82 82
267 264 253 227 227 240 258 273 145 120 66 22 257 228 243 63 104 120 122 129 130 135 140 137 138 134 131 129 127 125 124 125 124 122 118 115 110 105 101 99 94 90 86 84 82 83 82 81 77
249 225 239 242 242 235 248 277 54 112 142 220 260 245 125 57 76 111 125 137 134 135 131 140 139 137 134 133 132 130 130 128 127 126 123 119 114 110 107 105 102 97 93 90 88 85 84 81 77
244 233 224 234 244 250 256 262 136 141 205 204 214 271 96 88 96 115 143 146 140 133 131 143 140 139 138 137 137 137 136 135 134 133 130 126 121 116 114 113 109 103 97 92 90 88 86 83 75
217 228 228 231 240 243 249 255 171 187 248 222 198 265 111 126 120 134 146 150 137 129 133 143 143 143 142 142 143 144 143 143 142 141 139 133 128 125 124 121 115 107 100 94 90 89 86 80 67
233 231 239 242 244 241 237 230 182 187 245 242 198 250 131 128 123 135 145 158 132 130 134 143 147 147 147 147 148 149 149 149 149 147 142 136 134 135 134 130 123 113 104 97 93 93 91 86 76
247 254 243 243 253 257 256 225 177 187 234 265 250 253 81 111 123 134 147 149 132 134 141 151 155 155 154 153 154 154 154 154 154 148 141 140 144 146 147 142 132 124 116 109 104 103 104 108 106
258 244 241 237 245 260 270 264 179 163 247 276 249 136 98 110 123 127 135 138 137 144 150 158 160 162 161 161 161 157 158 160 155 149 153 157 167 165 156 144 139 134 130 125 125 134 154 162 175
219 239 239 253 266 280 281 273 192 180 215 249 257 176 129 137 149 153 158 160 152 160 160 161 164 165 164 162 159 165 167 167 172 171 175 191 196 168 146 142 144 147 147 146 158 181 218 215 190
211 237 256 261 279 307 319 320 300 251 236 227 228 208 165 164 176 180 181 179 175 179 177 168 169 167 164 156 165 171 175 174 194 185 186 201 170 134 140 149 155 163 167 175 187 202 211 74 75
241 240 245 261 301 333 315 314 303 268 259 271 280 265 162 171 190 200 200 191 180 179 184 182 172 169 167 163 171 170 173 173 193 184 183 187 153 153 159 161 168 170 166 155 150 129 89 54 56
236 253 263 275 294 303 299 289 292 284 284 285 288 286 243 219 224 219 213 208 191 180 178 184 179 173 173 170 173 173 171 171 180 173 176 163 142 161 146 136 135 130 126 119 88 68 67 46 43
250 258 261 263 263 264 262 263 261 263 272 273 271 265 249 240 247 252 234 217 208 186 175 177 181 179 177 174 173 177 171 169 167 164 173 160 156 157 137 125 110 102 97 95 86 75 66 58 46
300 290 276 257 244 239 253 253 243 246 251 255 253 251 247 242 242 243 239 223 211 196 178 174 179 182 181 179 177 179 170 168 160 163 173 164 157 149 131 127 119 113 109 94 76 67 61 58 21
235 246 249 238 218 218 220 255 255 244 228 235 242 245 244 238 236 237 235 224 216 204 187 178 178 181 183 182 178 176 171 163 158 160 167 166 158 144 128 126 124 117 105 94 83 63 63 55 23
213 232 231 236 183 195 212 252 260 275 251 235 235 236 239 240 234 232 230 222 212 206 196 182 173 177 180 178 174 171 165 161 158 156 159 161 151 139 130 125 121 113 99 90 89 60 55 48 12
202 221 235 233 171 200 238 256 264 276 278 261 250 246 242 240 237 232 228 224 215 207 199 185 174 174 175 171 166 159 156 158 153 146 148 149 143 135 125 118 114 111 106 104 104 105 74 46 352
313 305 286 286 332 307 269 271 268 263 258 252 244 242 244 245 244 239 236 230 221 210 202 191 178 175 173 173 172 170 165 153 140 136 136 137 132 126 123 118 112 113 117 118 116 112 96 45 357
266 279 286 300 318 311 284 276 268 255 248 244 243 239 237 241 242 240 236 233 228 219 204 195 183 177 176 177 172 162 140 122 106 98 104 117 119 122 125 120 119 116 113 101 96 95 99 67 35
244 256 273 293 323 293 278 280 256 248 234 233 236 239 239 239 238 238 236 234 230 225 212 203 193 182 174 165 150 130 107 97 101 105 102 105 115 119 125 123 119 116 112 110 103 99 101 117 67
245 248 265 286 295 293 319 297 275 277 260 228 223 226 231 236 238 239 239 238 231 224 215 206 197 186 173 163 160 158 162 159 156 138 123 115 117 121 125 125 121 115 113 115 113 100 102 107 114
228 41 317 289 295 297 258 257 275 241 251 241 221 215 217 223 229 236 237 237 237 227 213 207 199 188 175 169 165 165 161 141 134 132 129 125 123 124 127 125 121 119 117 115 107 97 84 96 101
140 112 261 257 297 270 225 222 276 254 261 277 274 274 241 244 249 247 243 239 241 237 219 207 196 187 175 168 165 167 159 149 147 148 144 138 133 128 126 124 121 117 118 119 115 108 88 83 85
175 192 210 199 225 250 232 226 252 268 307 327 329 329 336 330 314 293 276 260 244 235 222 205 191 182 169 163 164 164 155 153 156 154 151 147 144 142 138 131 124 119 118 116 108 101 100 96 95
190 207 226 244 261 297 249 239 253 249 235 216 278 294 311 314 307 296 285 274 261 238 215 199 188 177 164 159 159 152 145 149 153 152 150 148 147 143 137 130 122 122 124 122 115 117 131 138 183
178 218 290 334 307 283 262 270 281 240 225 209 260 285 298 300 295 287 284 278 269 250 218 197 184 171 160 154 146 142 143 145 146 144 140 138 139 140 135 129 127 128 128 125 125 135 160 171 203
225 189 179 189 248 272 272 257 249 334 35 35 335 311 307 301 298 298 291 282 272 250 220 195 177 163 152 144 141 141 138 139 141 141 140 139 139 136 133 130 128 126 124 128 137 144 148 161 228
195 209 205 215 248 258 283 266 334 4 16 8 338 321 307 304 298 295 294 291 280 249 210 179 165 148 139 133 130 131 132 136 137 137 136 136 134 134 133 131 130 130 132 137 142 155 157 208 259
198 203 199 209 235 231 265 270 290 313 345 341 329 321 315 309 301 295 293 290 281 231 179 155 145 135 130 128 128 129 132 135 135 133 133 133 132 131 129 128 127 127 126 127 134 153 172 235 260
Height
1504 1505 1507 1508 1509 1508 1503 1489 1476 1474 1475 1475 1476 1478 1478 1480 1484 1495 1494 1493 1492 1493 1496 1498 1501 1503 1506 1507 1509 1510 1512 1513 1515 1516 1517 1518 1518 1519 1520 1520 1521 1522 1523 1525 1526 1527 1529 1530 1531
1502 1504 1507 1506 1507 1510 1497 1481 1476 1474 1476 1478 1480 1482 1481 1481 1484 1489 1492 1493 1492 1493 1496 1498 1501 1503 1506 1507 1509 1510 1512 1513 1515 1516 1517 1518 1518 1519 1520 1520 1521 1522 1524 1525 1527 1528 1530 1531 1532
1500 1503 1505 1501 1502 1502 1490 1472 1469 1472 1477 1481 1482 1482 1482 1482 1485 1488 1491 1493 1493 1494 1496 1498 1501 1504 1506 1507 1509 1510 1512 1513 1515 1516 1517 1518 1519 1519 1520 1521 1521 1523 1524 1526 1528 1529 1531 1532 1533
1500 1503 1502 1499 1495 1487 1481 1474 1471 1474 1479 1482 1482 1481 1481 1484 1486 1488 1491 1493 1494 1495 1496 1499 1501 1504 1506 1508 1509 1510 1512 1513 1515 1516 1518 1519 1520 1520 1521 1522 1522 1524 1525 1527 1528 1530 1531 1532 1533
1498 1499 1498 1496 1489 1481 1474 1471 1471 1475 1479 1480 1482 1480 1481 1483 1485 1488 1491 1494 1495 1495 1496 1500 1502 1504 1506 1507 1509 1510 1512 1513 1515 1516 1518 1519 1520 1521 1522 1523 1524 1525 1526 1528 1529 1531 1532 1533 1534
1497 1493 1494 1492 1484 1477 1473 1470 1470 1475 1478 1479 1481 1481 1482 1483 1485 1489 1492 1495 1496 1495 1496 1500 1502 1504 1506 1507 1509 1510 1512 1513 1515 1517 1518 1520 1521 1522 1523 1524 1525 1526 1528 1529 1530 1531 1532 1533 1534
1492 1490 1488 1483 1478 1473 1469 1467 1469 1474 1478 1478 1480 1481 1482 1483 1485 1489 1492 1495 1496 1496 1496 1499 1501 1503 1505 1507 1509 1510 1512 1513 1515 1517 1519 1520 1522 1523 1524 1525 1527 1528 1529 1530 1531 1532 1533 1534 1534
1487 1485 1482 1480 1477 1471 1464 1463 1466 1471 1476 1478 1479 1480 1482 1484 1485 1489 1492 1495 1496 1496 1496 1499 1501 1503 1505 1507 1508 1510 1512 1513 1515 1517 1519 1521 1522 1524 1525 1526 1527 1529 1530 1531 1531 1532 1533 1534 1534
1485 1486 1481 1476 1474 1470 1464 1463 1465 1469 1474 1477 1478 1481 1483 1484 1486 1488 1491 1494 1495 1496 1497 1498 1499 1502 1504 1506 1508 1510 1511 1513 1515 1517 1519 1521 1523 1524 1526 1527 1528 1529 1530 1531 1532 1532 1533 1533 1534
1482 1482 1476 1470 1467 1466 1463 1463 1465 1468 1473 1476 1478 1479 1480 1483 1485 1487 1489 1491 1493 1495 1496 1497 1499 1501 1503 1504 1506 1509 1510 1512 1515 1517 1519 1521 1522 1524 1525 1527 1528 1529 1530 1531 1531 1532 1532 1532 1532
1476 1475 1472 1469 1468 1466 1466 1465 1465 1468 1472 1474 1476 1477 1478 1480 1483 1485 1486 1488 1490 1492 1495 1496 1498 1500 1501 1503 1505 1507 1509 1511 1513 1516 1519 1520 1523 1524 1525 1527 1527 1528 1529 1530 1531 1531 1531 1532 1532
1472 1470 1469 1468 1468 1468 1468 1468 1468 1469 1471 1473 1473 1474 1474 1477 1479 1482 1484 1485 1487 1488 1491 1494 1496 1498 1500 1501 1503 1505 1507 1509 1512 1515 1517 1520 1522 1523 1525 1526 1526 1527 1528 1529 1530 1530 1530 1530 1530
1470 1469 1468 1468 1468 1469 1470 1471 1471 1470 1471 1471 1471 1472 1473 1474 1477 1479 1481 1483 1484 1485 1486 1490 1493 1495 1497 1499 1502 1504 1506 1508 1511 1514 1516 1518 1520 1522 1523 1525 1526 1527 1527 1528 1529 1529 1529 1529 1528
1467 1468 1468 1467 1467 1469 1471 1471 1472 1469 1470 1469 1469 1468 1470 1471 1474 1475 1477 1479 1481 1482 1483 1485 1489 1492 1494 1497 1499 1501 1504 1506 1509 1511 1514 1516 1518 1520 1522 1523 1524 1525 1526 1527 1527 1527 1527 1527 1526
1469 1470 1468 1465 1466 1467 1470 1468 1466 1466 1467 1466 1465 1465 1466 1467 1470 1471 1473 1475 1477 1479 1481 1482 1484 1488 1490 1493 1495 1498 1501 1503 1506 1508 1511 1513 1516 1518 1520 1521 1522 1523 1524 1525 1525 1525 1525 1525 1524
1471 1472 1470 1460 1459 1462 1470 1467 1460 1458 1458 1459 1460 1460 1461 1462 1464 1466 1468 1470 1472 1475 1477 1478 1480 1483 1486 1489 1492 1494 1497 1500 1502 1504 1507 1510 1513 1515 1516 1518 1520 1521 1522 1523 1523 1523 1523 1523 1522
1470 1470 1465 1457 1453 1456 1461 1461 1456 1453 1452 1452 1453 1454 1455 1456 1457 1459 1461 1464 1466 1469 1472 1474 1475 1478 1481 1484 1488 1490 1493 1496 1499 1501 1504 1507 1509 1511 1513 1515 1516 1518 1519 1520 1521 1521 1521 1521 1520
1465 1465 1458 1454 1450 1454 1457 1456 1453 1451 1450 1448 1448 1448 1448 1449 1450 1452 1454 1457 1460 1462 1465 1468 1470 1472 1476 1479 1483 1486 1489 1492 1495 1498 1500 1503 1505 1508 1510 1512 1513 1515 1516 1517 1518 1519 1519 1518 1517
1459 1460 1457 1452 1449 1453 1454 1452 1449 1446 1445 1443 1442 1442 1442 1442 1443 1445 1447 1449 1452 1455 1458 1461 1463 1466 1469 1473 1476 1479 1482 1486 1490 1493 1496 1499 1501 1504 1506 1508 1510 1512 1514 1515 1516 1516 1516 1516 1515
1462 1464 1462 1457 1453 1454 1453 1448 1443 1437 1434 1433 1433 1433 1434 1435 1437 1438 1440 1442 1444 1447 1450 1454 1456 1459 1462 1466 1469 1473 1477 1481 1484 1488 1491 1494 1496 1499 1502 1505 1507 1509 1510 1512 1513 1513 1513 1513 1512
1464 1466 1464 1462 1459 1456 1455 1444 1431 1421 1420 1422 1424 1425 1426 1428 1430 1432 1434 1435 1438 1440 1443 1447 1450 1453 1456 1460 1463 1467 1470 1474 1478 1482 1485 1488 1491 1495 1498 1501 1504 1506 1507 1509 1510 1511 1510 1510 1510
1465 1461 1462 1464 1467 1463 1456 1457 1431 1420 1415 1414 1415 1417 1419 1421 1424 1426 1428 1430 1432 1434 1438 1440 1444 1447 1451 1453 1455 1458 1462 1465 1470 1474 1478 1482 1487 1491 1494 1498 1500 1502 1505 1506 1507 1508 1507 1507 1507
1462 1463 1465 1465 1467 1469 1460 1462 1434 1418 1416 1411 1410 1411 1413 1416 1418 1420 1422 1424 1426 1429 1431 1434 1437 1441 1444 1446 1448 1452 1456 1460 1464 1469 1473 1478 1482 1487 1490 1494 1497 1499 1501 1503 1504 1505 1505 1505 1504
1462 1467 1467 1467 1471 1475 1458 1456 1435 1417 1410 1408 1407 1409 1411 1413 1415 1416 1418 1419 1421 1423 1424 1427 1430 1433 1437 1440 1442 1446 1449 1453 1457 1462 1466 1472 1477 1482 1486 1489 1493 1496 1498 1500 1501 1502 1502 1502 1502
1465 1471 1473 1472 1474 1467 1445 1442 1429 1411 1406 1406 1408 1409 1410 1411 1413 1413 1414 1415 1415 1417 1418 1420 1423 1426 1430 1434 1436 1441 1443 1447 1452 1456 1460 1466 1471 1476 1481 1485 1489 1492 1495 1497 1498 1499 1499 1499 1499
1464 1467 1469 1467 1459 1446 1432 1433 1419 1406 1403 1404 1406 1408 1409 1410 1410 1410 1410 1410 1411 1411 1412 1414 1416 1420 1424 1428 1432 1436 1439 1443 1447 1451 1456 1462 1467 1473 1478 1482 1486 1490 1492 1494 1495 1496 1496 1496 1495
1463 1465 1462 1465 1463 1466 1447 1426 1411 1401 1401 1403 1405 1407 1408 1408 1408 1407 1406 1405 1405 1405 1406 1407 1410 1415 1419 1423 1428 1431 1434 1438 1443 1447 1453 1458 1464 1470 1475 1479 1483 1487 1489 1491 1492 1493 1493 1493 1492
1458 1459 1465 1471 1473 1465 1443 1427 1416 1403 1403 1404 1405 1405 1406 1405 1404 1402 1401 1399 1398 1398 1399 1401 1404 1409 1413 1418 1422 1426 1430 1435 1440 1444 1449 1455 1462 1467 1472 1477 1481 1484 1487 1489 1489 1490 1490 1489 1488
1460 1462 1460 1463 1460 1464 1454 1432 1402 1404 1403 1405 1405 1404 1403 1402 1400 1397 1395 1392 1391 1391 1392 1395 1399 1404 1408 1413 1418 1423 1427 1432 1437 1442 1448 1454 1460 1466 1471 1475 1479 1482 1485 1486 1487 1487 1486 1486 1485
1452 1454 1458 1465 1460 1455 1454 1434 1405 1403 1402 1403 1403 1402 1400 1398 1395 1392 1390 1387 1385 1384 1386 1389 1394 1399 1403 1409 1414 1420 1425 1430 1435 1440 1446 1453 1459 1465 1470 1474 1477 1480 1482 1484 1484 1484 1483 1482 1481